Temp
20 20 20 20 20 20 20 19 20 20 19 19 19 19 19 19 19 19 19 19 18 18 19 19 19 18 18 18 18 18 18 18 17 18 18 18 18 18 17 17 18 17 18
21 20 20 20 20 20 20 19 19 19 19 19 19 19 19 19 19 18 18 18 18 19 19 19 18 18 18 18 18 17 18 19 19 19 18 18 18 17 17 18 18 17 18
21 20 20 20 20 20 20 20 19 19 20 19 19 19 19 19 18 18 18 18 18 19 19 18 18 18 18 18 17 17 18 18 18 18 18 18 18 17 17 18 17 17 17
21 20 20 20 20 20 20 19 20 19 19 19 19 19 18 18 18 18 18 19 19 18 18 18 18 17 18 19 18 18 18 18 18 18 18 18 18 17 17 17 17 17 17
22 21 20 20 20 20 20 20 19 19 19 19 20 19 19 18 18 18 19 18 19 18 18 18 17 17 18 19 19 18 18 18 17 18 18 18 17 17 17 16 16 16 16
22 22 21 20 20 20 21 20 19 19 19 19 19 19 19 19 19 19 19 19 18 18 18 17 17 18 18 19 18 18 18 19 18 18 18 17 17 17 16 16 16 15 15
21 22 21 20 19 20 20 20 20 19 19 19 19 19 19 19 19 18 18 18 18 18 18 17 17 18 18 18 17 18 18 19 18 17 17 17 17 16 16 16 15 15 15
22 22 22 22 20 19 20 20 20 20 19 19 19 19 19 19 18 18 18 18 18 17 17 16 16 17 18 17 17 18 18 18 18 17 17 17 17 16 16 15 15 15 15
21 21 21 21 21 20 19 20 20 20 19 19 19 19 19 19 18 18 18 18 18 17 16 16 16 16 18 17 17 18 17 17 17 17 17 17 16 16 15 15 15 15 15
21 21 21 21 20 19 20 19 20 19 19 19 18 19 19 18 18 19 18 17 18 17 16 16 16 16 17 17 17 17 17 17 17 17 16 16 15 15 15 15 16 16 15
20 20 20 20 20 19 18 19 19 19 19 19 19 18 18 18 18 19 17 17 17 17 16 16 16 17 17 17 17 16 17 17 16 16 16 16 15 15 15 15 15 15 15
20 20 19 19 20 19 18 18 18 18 18 19 19 18 18 18 18 18 16 16 16 16 16 15 16 17 16 17 16 17 16 16 16 15 15 15 15 15 15 15 15 15 15
20 20 19 18 18 19 18 17 17 17 18 18 18 18 18 17 17 17 16 15 16 16 16 16 16 16 16 16 16 16 16 16 15 15 15 15 15 15 15 15 15 15 14
19 19 19 18 17 18 18 17 16 17 16 17 17 18 17 17 17 17 16 15 16 16 16 16 16 16 16 15 16 16 16 16 16 16 15 15 15 15 15 15 14 14 14
18 19 18 17 17 17 17 16 16 16 16 16 16 16 17 16 17 17 16 15 16 15 16 16 16 16 15 15 15 16 15 15 15 15 14 14 15 15 15 15 14 14 14
18 18 17 16 16 16 16 16 15 15 15 15 13 15 13 14 17 16 16 15 16 16 16 16 16 15 15 15 15 15 15 15 15 15 14 14 15 15 15 14 14 14 14
18 17 17 16 16 15 15 15 14 14 14 14 14 14 13 14 13 17 16 16 15 16 16 16 16 15 15 15 15 15 15 15 15 14 14 14 14 14 14 14 13 13 13
17 17 16 15 15 14 14 14 13 13 12 13 14 15 14 14 14 15 15 15 15 16 16 17 16 15 15 16 15 15 14 15 14 14 13 13 13 13 13 13 13 13 13
16 16 16 14 14 13 13 13 12 12 11 12 11 12 13 14 14 13 15 15 15 15 16 16 16 16 15 15 15 15 14 14 14 13 13 13 13 13 13 13 13 12 13
16 16 14 14 13 12 11 11 11 10 10 11 11 12 12 14 13 13 15 15 15 15 16 16 16 15 15 14 14 14 14 13 13 13 13 13 13 13 13 13 12 12 12
15 14 13 12 12 11 10 9 9 9 10 10 11 13 13 14 14 12 14 14 14 15 16 16 16 15 13 14 12 12 12 12 13 13 13 13 12 12 12 12 12 12 11
13 12 12 11 11 11 9 9 10 10 10 10 11 11 11 12 14 12 12 14 14 14 15 15 16 12 12 13 12 12 10 11 12 12 12 12 12 12 12 12 12 12 12
12 12 11 11 11 10 10 9 9 9 9 10 10 12 11 11 12 12 11 13 14 15 15 16 15 14 12 13 14 13 8 9 10 11 12 12 12 12 12 12 12 12 12
12 12 11 11 11 11 10 9 9 9 9 10 9 11 12 13 12 12 10 12 13 14 15 15 15 15 13 12 13 14 13 12 9 9 11 11 12 12 12 12 12 11 11
12 12 11 11 11 11 10 10 9 9 9 9 9 9 12 12 13 12 10 11 14 15 16 15 14 14 14 13 13 12 12 11 11 9 8 9 11 12 12 12 12 11 11
12 11 11 11 11 10 10 10 9 9 8 8 8 8 9 10 10 12 14 10 15 15 15 15 14 14 14 13 13 13 13 12 11 10 7 8 9 11 11 12 11 11 11
Height
786 786 788 788 789 789 790 791 792 793 794 796 797 799 800 801 803 804 805 806 809 812 814 815 817 818 819 820 821 822 823 824 825 826 827 828 829 830 832 832 833 833 834
784 786 787 788 789 789 789 791 792 793 795 797 798 799 801 803 804 806 807 808 810 813 815 816 818 819 820 821 823 824 824 825 826 828 829 830 831 832 833 834 834 835 836
785 786 787 788 788 788 790 791 793 794 795 796 798 800 801 804 805 807 808 810 811 814 816 818 819 820 821 823 824 825 826 828 829 830 831 832 833 833 834 835 836 836 837
785 786 788 788 788 788 789 790 792 794 795 796 798 800 801 804 806 807 809 811 811 814 816 818 820 821 822 824 825 827 828 829 830 831 832 833 834 835 835 837 838 838 839
784 785 787 788 788 788 788 790 791 793 795 796 797 800 801 803 805 807 809 810 812 814 817 818 820 821 823 825 826 828 829 831 832 833 833 834 835 836 837 839 839 840 840
784 784 785 784 786 788 788 789 791 792 794 796 797 799 800 803 804 806 808 810 812 813 816 818 820 822 824 825 827 829 830 830 832 834 835 836 837 838 839 840 841 841 842
783 783 783 783 785 786 787 788 789 791 793 794 797 798 800 802 803 805 808 809 811 814 816 819 820 822 824 826 828 829 830 831 832 835 836 837 839 840 841 842 843 842 843
780 782 782 782 782 783 785 786 787 789 791 793 795 797 799 801 802 804 807 810 812 814 816 818 821 822 825 827 828 830 831 832 834 835 837 838 840 841 843 844 844 845 845
777 778 779 779 779 780 782 783 785 786 788 791 793 795 798 800 801 803 805 808 811 814 816 818 821 822 824 828 829 831 832 833 835 836 837 839 841 843 844 845 846 847 847
775 776 777 777 777 777 778 780 782 784 786 788 791 793 796 798 800 802 804 806 808 811 814 817 820 823 824 827 830 831 833 834 836 837 839 840 842 844 846 846 847 848 848
773 772 774 774 775 775 775 776 778 781 783 786 788 791 793 795 798 800 803 805 806 809 813 817 820 823 825 826 829 832 833 834 836 838 840 842 844 846 847 848 849 850 851
770 769 770 771 772 772 773 773 774 776 779 781 784 787 789 792 794 796 801 803 806 808 812 816 820 823 825 826 829 832 834 836 837 839 841 844 846 847 849 849 850 852 853
767 767 766 766 768 769 770 770 771 772 774 776 780 782 786 789 791 794 798 802 804 807 810 815 819 822 825 826 828 831 834 836 838 839 843 846 848 849 850 851 852 853 855
762 762 762 762 763 765 766 767 768 769 770 773 775 779 781 785 787 790 795 798 800 806 808 811 817 820 824 827 828 831 833 836 837 840 844 847 848 850 851 852 853 855 856
758 757 757 758 759 761 762 764 765 766 767 769 771 776 778 781 783 786 791 796 797 803 806 808 814 818 823 826 829 830 833 836 839 840 843 848 849 850 852 853 855 856 857
754 752 752 754 756 758 759 761 763 764 765 766 768 769 771 777 777 781 786 792 794 798 804 807 810 815 821 824 828 830 833 836 839 841 844 849 850 851 852 854 856 857 859
750 749 749 751 753 755 757 759 761 763 764 764 767 763 769 769 773 773 779 786 792 795 802 806 809 814 819 823 825 828 832 835 839 842 845 849 851 852 854 855 858 859 860
748 747 748 749 750 752 754 756 757 760 761 762 761 760 761 762 773 769 771 779 788 793 798 804 807 811 816 819 823 827 831 834 838 842 845 849 852 853 856 857 858 860 861
745 744 744 746 747 748 750 751 753 755 756 757 756 753 757 761 759 766 764 768 782 790 795 801 804 808 812 817 822 827 830 834 837 842 846 848 851 853 855 857 858 859 861
742 740 740 741 744 745 746 747 748 750 752 754 754 751 749 751 762 759 754 761 773 785 790 798 802 806 811 816 822 828 832 835 838 841 845 848 850 852 854 856 858 859 861
739 737 738 740 742 742 744 745 745 746 749 750 752 749 747 742 756 759 751 759 767 777 784 793 799 803 809 814 821 831 835 837 838 841 844 847 849 851 853 854 856 858 860
736 735 736 738 739 739 741 741 742 743 745 746 748 746 745 744 738 754 753 755 763 773 779 786 793 800 805 811 816 826 836 840 839 841 843 846 848 850 852 854 855 857 859
734 734 735 735 736 735 736 737 738 740 741 742 744 742 746 742 737 748 756 754 759 766 773 781 787 793 801 807 812 816 832 834 836 841 842 844 846 848 850 852 854 856 858
732 732 732 733 733 730 728 731 733 734 735 736 739 739 739 738 739 740 757 758 759 763 769 777 784 790 796 802 809 814 818 821 830 838 840 842 844 846 848 850 852 855 857
729 728 730 730 728 724 724 725 728 728 729 730 733 736 736 733 730 744 756 758 761 762 768 775 782 787 794 799 805 812 817 820 822 826 835 837 841 843 846 847 849 852 854
728 727 727 727 724 722 719 720 720 718 725 725 728 731 729 731 732 740 751 757 758 762 767 773 781 786 791 797 803 809 813 816 819 821 828 833 837 840 843 846 847 850 852
Wind_Speed
11 16 15 14 14 13 13 16 16 15 13 15 16 16 16 18 18 19 19 19 20 19 18 17 16 16 16 17 17 18 18 18 17 17 17 16 14 18 16 16 17 17 17
8 16 16 13 16 13 13 15 18 18 17 15 15 16 17 17 18 19 18 20 20 19 18 17 17 17 16 17 17 17 18 18 16 15 16 16 15 15 15 16 18 18 19
6 14 15 13 14 15 14 14 18 19 18 17 16 16 16 17 18 18 18 20 20 19 18 17 16 16 17 17 18 18 19 18 16 14 13 15 15 14 14 18 20 19 18
15 8 14 12 10 18 17 15 18 19 19 18 16 16 16 17 18 17 19 22 21 21 19 18 15 16 18 18 19 20 20 19 17 14 13 15 13 17 22 22 20 18 16
10 12 6 15 14 15 18 18 17 20 20 19 17 16 16 17 18 19 21 22 22 22 20 18 16 17 18 19 19 16 15 14 13 14 17 20 19 20 20 19 17 15 14
4 5 6 13 19 15 17 17 18 19 20 20 20 21 20 19 19 21 20 20 23 23 21 17 15 16 19 19 17 15 11 14 18 17 20 21 19 19 17 16 14 13 13
6 4 6 1 18 18 18 19 20 21 21 21 21 20 21 22 21 20 21 24 22 20 18 16 16 16 18 19 16 14 15 17 24 21 20 18 17 16 15 13 13 13 13
8 7 5 9 7 18 20 21 22 22 22 23 23 22 23 24 22 24 25 23 20 19 16 16 16 18 19 17 15 14 18 22 22 20 17 16 13 13 13 12 13 14 14
10 10 10 13 12 16 22 23 24 26 25 24 25 24 24 23 25 25 25 24 21 18 16 17 17 19 20 17 16 14 19 22 23 22 20 19 14 12 12 12 14 15 15
9 10 9 10 11 12 17 23 24 26 27 26 26 24 24 25 26 22 24 23 21 18 17 19 20 19 22 19 18 18 23 24 24 19 15 13 14 11 13 15 16 17 17
12 13 12 10 11 12 14 17 23 26 28 28 26 26 27 28 27 24 23 22 20 19 18 20 21 21 20 21 19 23 23 23 20 18 15 14 16 15 17 16 19 19 18
17 18 15 12 13 14 16 16 19 25 28 29 28 28 31 33 30 27 24 23 22 21 19 21 23 22 21 23 25 23 24 22 20 18 16 17 17 17 18 19 19 18 17
19 21 19 16 14 15 14 17 16 20 27 30 30 31 34 34 31 29 25 25 24 22 21 23 21 22 23 26 26 24 24 22 22 19 17 18 16 17 17 18 18 18 17
17 21 25 20 16 15 15 16 14 17 20 28 32 34 37 36 33 30 29 30 28 28 27 25 24 24 26 25 25 26 25 22 21 17 18 19 18 18 20 18 16 16 16
16 19 25 24 20 17 15 14 12 14 18 20 28 32 38 39 37 32 31 32 32 30 29 28 26 25 28 27 25 26 24 23 22 20 21 18 19 17 17 16 15 16 15
15 17 22 26 21 19 17 16 17 14 18 18 13 20 6 20 41 38 35 35 33 33 30 29 27 30 30 29 24 24 26 25 22 20 21 18 18 18 17 17 16 15 15
13 14 22 26 21 19 17 16 17 19 19 18 20 15 13 17 19 43 40 40 37 36 32 30 28 30 29 24 24 27 29 25 22 24 21 18 17 17 16 15 14 14 13
11 13 21 25 23 19 17 17 18 19 20 23 27 32 29 25 21 42 44 42 39 38 35 31 34 30 26 25 29 31 29 24 23 24 22 18 17 17 16 15 15 14 14
11 12 21 26 24 20 18 18 18 18 18 20 20 19 26 23 21 36 46 45 43 37 36 37 35 28 30 32 34 31 27 26 26 25 23 21 19 18 19 17 16 15 14
14 14 17 26 23 20 17 15 16 15 16 16 16 17 21 24 29 32 43 44 46 35 39 40 34 31 34 35 33 30 28 26 24 25 24 23 21 20 19 18 17 17 15
13 11 13 20 21 20 15 12 13 16 18 19 19 15 24 31 38 29 37 42 43 40 43 43 36 34 36 38 32 25 21 22 21 22 22 21 20 19 17 17 17 17 17
11 8 12 18 19 19 17 17 15 17 19 19 20 12 22 31 39 27 27 43 43 38 42 42 37 28 31 36 21 20 3 6 15 20 21 20 18 18 17 17 17 17 16
11 8 11 15 16 19 21 19 19 15 14 21 18 14 18 22 31 24 24 35 42 43 43 44 44 35 28 26 38 11 3 4 8 14 20 21 20 19 16 17 17 16 16
12 9 10 11 11 16 23 23 22 20 14 20 21 18 16 14 18 18 20 32 36 40 42 43 45 40 36 27 27 19 8 12 3 3 12 20 20 20 19 18 18 16 15
10 11 12 12 12 16 21 26 25 19 22 21 20 25 26 20 19 21 18 30 41 42 44 43 42 42 40 32 28 15 13 10 9 4 3 8 20 22 21 19 19 18 17
7 11 15 13 16 16 18 21 28 22 16 20 21 17 22 29 31 33 30 22 36 38 42 42 43 42 40 34 29 20 17 7 7 5 3 4 12 20 21 21 20 19 18
Wind_Direction
177 171 169 175 174 171 172 169 166 160 157 151 142 146 146 146 143 140 139 136 132 129 127 126 125 123 118 117 118 117 117 114 115 120 119 111 110 111 108 109 109 97 96
172 177 178 184 184 176 179 177 173 165 170 165 159 153 151 147 146 142 141 138 137 137 136 130 129 128 126 123 122 122 120 115 114 122 123 113 117 112 113 109 104 99 94
131 183 187 192 191 182 185 189 180 175 173 171 169 162 156 154 154 151 148 146 143 143 140 138 131 131 133 132 128 124 119 115 114 117 128 124 122 120 122 119 107 100 94
71 178 197 205 199 196 189 193 190 188 180 176 179 175 167 167 167 162 158 154 148 148 144 144 144 143 139 135 131 129 125 117 108 115 128 140 129 123 110 101 94 98 104
57 77 219 220 213 204 201 198 199 193 187 180 187 182 191 174 177 174 173 164 158 156 156 152 147 155 147 141 136 135 138 139 127 118 114 120 123 110 100 97 92 90 93
65 355 14 219 224 216 211 206 204 202 198 195 197 196 196 190 183 182 183 176 162 161 164 156 153 155 153 149 139 138 153 161 151 129 118 112 107 103 97 94 90 88 89
64 26 353 338 227 231 224 221 212 209 207 206 205 202 199 196 193 185 176 169 166 164 167 165 164 164 160 155 146 138 134 138 149 134 125 115 103 99 97 95 92 91 89
326 328 312 326 255 229 234 230 224 218 216 216 212 210 207 201 189 178 174 174 176 172 173 171 172 170 166 158 154 148 148 142 143 140 135 124 114 103 104 101 101 99 98
293 304 291 282 276 236 237 235 232 226 222 221 216 213 209 205 188 178 180 182 184 185 183 176 178 174 169 163 156 155 157 153 146 138 131 129 121 117 114 113 111 108 107
276 292 298 305 277 250 238 235 235 232 228 222 219 215 211 197 188 190 192 189 191 191 189 178 177 178 169 170 160 159 152 151 145 139 137 125 124 130 126 120 120 109 105
257 268 266 283 281 272 254 237 231 235 231 225 221 217 207 194 193 197 196 191 188 182 182 178 177 176 172 168 163 158 161 152 147 137 133 127 127 131 133 122 115 113 103
256 255 249 243 273 270 258 246 239 235 230 226 222 214 201 197 192 197 196 187 181 178 178 180 176 181 169 162 159 169 164 153 142 133 125 126 132 133 137 123 120 117 108
263 249 246 237 244 263 260 255 245 243 233 227 224 212 202 200 193 194 194 185 180 180 168 167 177 184 175 167 165 170 158 153 144 133 129 137 137 143 141 129 123 119 115
282 258 239 234 238 243 252 251 250 245 241 231 223 215 204 200 192 197 193 187 180 178 174 178 186 185 177 171 172 171 166 161 149 146 143 143 144 141 145 132 128 125 118
286 279 239 228 233 235 237 234 234 232 229 209 213 207 206 202 198 200 194 189 180 183 180 180 189 190 179 173 174 176 168 160 153 150 146 156 147 147 144 137 130 131 123
298 281 243 225 225 233 235 229 223 214 200 192 163 181 73 206 203 199 192 188 181 181 184 185 188 182 179 177 170 177 168 160 159 151 144 156 155 151 143 142 138 129 127
298 274 233 225 226 230 234 231 229 228 227 222 232 228 267 276 230 197 190 186 185 182 187 183 181 175 179 185 184 182 167 161 157 151 149 155 162 157 151 144 141 140 138
274 255 232 227 228 229 233 235 238 246 247 250 253 251 261 264 263 193 185 185 187 183 186 185 179 180 180 176 174 168 161 160 157 156 155 158 158 157 156 149 143 141 140
296 269 235 228 226 226 236 238 240 252 257 264 253 244 242 245 247 200 182 181 185 183 183 185 184 186 170 169 166 163 160 160 162 164 163 163 163 162 159 155 151 145 144
301 294 248 226 221 224 239 234 238 250 250 245 233 239 231 225 211 216 180 180 180 180 182 188 186 179 165 160 158 159 162 164 168 171 170 174 175 175 172 168 165 158 155
301 274 235 209 214 227 222 219 233 236 240 234 229 241 218 211 208 219 183 179 178 181 183 188 186 175 149 155 140 145 156 163 169 175 180 183 185 187 186 183 179 173 167
286 257 218 215 224 237 229 223 222 227 232 224 212 191 190 189 187 214 197 180 180 180 182 183 182 157 157 151 145 129 130 122 176 183 187 188 189 189 190 190 187 184 183
271 253 232 229 239 237 237 225 216 223 230 221 209 182 183 173 173 195 205 183 178 183 180 182 182 169 164 165 159 149 130 188 141 187 189 190 193 193 194 194 192 192 194
269 247 235 231 248 260 243 216 211 212 209 220 224 207 191 179 163 178 207 192 180 179 179 181 180 176 167 157 163 168 162 141 157 147 201 200 198 201 200 198 198 199 199
262 231 224 217 277 286 245 221 224 213 220 225 212 214 206 191 169 197 208 187 187 184 184 180 178 178 174 169 176 152 153 159 147 140 159 184 204 206 206 206 205 205 204
262 230 219 221 260 291 243 235 220 212 193 176 172 172 170 182 182 178 193 212 184 183 182 183 185 185 181 181 181 173 167 160 177 152 119 148 179 204 207 210 212 213 212